Flag for U.S.A. Weather past 2 weeks in Abilene, Texas, U.S.A.

Now
80 °F

Passing clouds.


Feels Like: 82 °F
Forecast: 70 / 86 °F
Wind: No wind

Location: Abilene Regional Airport

Current Time: Sep 16, 2014 at 11:37:13 PM

Latest Report: Sep 16, 2014 at 10:52 PM


Visibility: 10 mi

Pressure: 29.98 "Hg

Humidity: 60%

Dew point: 65 °F

Location of AbileneLocation

Historic Weather in Abilene — Graph

°F

Abilene temperature yesterday

Maximum temperature yesterday: 88 °F (at 4:52 PM)
Minimum temperature yesterday: 71 °F (at 6:52 AM)
Average temperature yesterday: 77 °F

Past Weeks' High & Low Weather Summary

 TemperatureHumidityPressure
High102 °F (Sep 10, 3:52 PM)97% (Sep 7, 5:52 AM)30.32 "Hg (Sep 7, 5:52 AM)
Low52 °F (Sep 13, 5:52 AM)19% (Sep 10, 6:52 PM)29.67 "Hg (Sep 10, 5:52 PM)
Average77 °F64%29.99 "Hg
* Reported Sep 1 9:52 PM — Sep 16 9:52 PM, Abilene, Weather by CustomWeather, © 2014

Note: Actual official high and low records may vary slightly from our data, if they occured in-between our weather recording intervals... More about our weather records

Advertising

Abilene weather history for previous 24 hours

 ConditionsComfort  
Time TempWeatherWind HumidityBarometerVisibility
9:52 PM
Sep 16
81 °FClear.5 mph58%29.98 "Hg10 mi
8:52 PM82 °FPassing clouds.6 mph55%29.97 "Hg10 mi
7:52 PM84 °FScattered clouds.6 mph51%29.96 "Hg10 mi
6:52 PM87 °FOvercast.5 mph45%29.95 "Hg10 mi
5:52 PM88 °FCloudy.5 mph43%29.95 "Hg10 mi
4:52 PM88 °FPartly sunny.No wind43%29.96 "Hg10 mi
3:52 PM87 °FMore clouds than sun.7 mph45%29.98 "Hg10 mi
2:52 PM87 °FOvercast.6 mph45%30.01 "Hg10 mi
1:52 PM86 °FOvercast.3 mph49%30.04 "Hg10 mi
12:52 PM84 °FOvercast.5 mph55%30.06 "Hg10 mi
11:52 AM83 °FOvercast.5 mph57%30.09 "Hg10 mi
10:52 AM82 °FSunny.5 mph60%30.10 "Hg10 mi
9:52 AM76 °FSunny.No wind77%30.10 "Hg10 mi
8:52 AM74 °FOvercast.No wind79%30.10 "Hg10 mi
7:52 AM72 °FClear.3 mph84%30.09 "Hg10 mi
6:52 AM72 °FPassing clouds.3 mph81%30.06 "Hg10 mi
5:52 AM73 °FOvercast.3 mph79%30.07 "Hg10 mi
4:52 AM74 °FOvercast.5 mph76%30.07 "Hg10 mi
3:52 AM74 °FPassing clouds.No wind76%30.08 "Hg10 mi
2:52 AM72 °FPassing clouds.3 mph81%30.09 "Hg10 mi
1:52 AM72 °FClear.8 mph81%30.09 "Hg10 mi
12:52 AM73 °FClear.7 mph79%30.09 "Hg10 mi
11:52 PM
Sep 15
74 °FClear.7 mph76%30.10 "Hg10 mi
Weather by CustomWeather, © 2014

See weather overviewHow to use our weather pages